Showing default

COSMOS 1275, 12504

Orbit data source: Space-Track

COSMOS 1275, 12504 is a payload satellite owned by VMF (CIS) in LEO that was launched on Thu, 04 Jun 1981 UTC via a KOSMOS 11K65M launch vehicle from the Plesetsk Missile And Space Complex (PKMTR). Payload-class satellites include a variety of spacecraft equipped with specific instruments for various scientific and technological missions. These include communications satellites like Starlink; space stations such as the ISS; scientific satellites like the Hubble; Earth observation satellites from companies like Planet Labs, Umbra, and HawkEye 360; GPS; miniature CubeSats for education and research; and military/defense satellites.

Loading next visibility...
Identifier
12504, 1981-053A
Orbit
LEO
Country
Flag of CISCIS
Related business
Manufacturer
Omsk Av. Zav.
Mission
Defense Navigation
Bus & Motor
KAUR-1 11F627, Unknown motor
Mass
800 kg wet, 800 kg dry
Launch date (UTC)
1981-06-04 (44 years ago)
Launch vehicle
KOSMOS 11K65M
Launch site
Plesetsk Missile And Space Complex (PKMTR)
Object type
Payload
Rocket body
Debris
Shape & HBR
Cyl, 2.5 m
Radar Cross Section
9.978 m², Large (>1 m²)

Expand to show TLE details & history
Last TLE update: 18 hours ago

TLE from 18 hours ago
0 COSMOS 1275
1 12504U 81053A   25260.99997781  .00000069  00000-0  56612-4 0  9992
2 12504  82.9566 106.4503 0038869 216.4983 143.3523 13.74506754221880
Epoch: 2025-09-17T23:59Z
TLE epoch observation values (Epoch: 2025-09-17T23:59:58.082Z)
Latitude
-0.00004°
Longitude
109.29042°
Altitude
1,009.336 km
Speed
7.336 km/s
True Right ascension
07h 05m 48s
True Declination
0° 00' 00"
Sunlit
Object was in daylight at epoch
Visualization orbit readout
Latitude
Unknown
Longitude
Unknown
Altitude
Unknown
Speed
Unknown
Apparent Right ascension
Unknown
Apparent Declination
Unknown
Sunlit
N/A
Visualization observer readout
Local Sidereal Time
10:26:47
Azimuth
Unknown
Elevation
Unknown
Doppler factor
Unknown
Orbital elements
Apogee altitude
1,009.187 km
Perigee altitude
951.982 km
Semi-major axis
7,358.721 km
Eccentricity
0.00389
Inclination
82.9566°
RAAN
106.4503°
Arg. of periapsis
216.4983°
True anomaly
143.61713°
Mean anomaly
143.3523°
Eccentric anomaly
143.48482°
Mean motion
3.43827 °/min
Orbital period
104.7 mins
BSTAR
0.000056612
Loading maneuver chart data...
Computing Atmospheric mass density...
Loading historical data...
Loading historical data...
Loading historical data...
Loading historical data...
Loading historical data...
Loading historical data...
Loading historical data...

Documentation

Showing up to 5 results
|